Location: *
(50.3194°N, 7.1067°E)
Time: 12:28:58
(UTC+00:00)

Cosmos 1023 Rocket - Pass Details

Date: 22 September 2019
Orbit: 737 x 772 km, 74.1° (Epoch: 18 October)

Event Time Altitude Azimuth Distance (km) Brightness Sun altitude
Rises 18:21:41 0° 337° (NNW) 3,217 8.2 -8.9°
Reaches altitude 10° 18:24:06 10° 341° (NNW) 2,283 7.4 -9.3°
Maximum altitude 18:29:13 63° 63° (ENE) 832 4.5 -10.1°
Drops below altitude 10° 18:34:16 10° 144° (SE) 2,248 6.5 -10.9°
Enters shadow 18:35:12 - 146° (SE) 2,602 6.8 -11.0°
